[[{"header":{"parameterUnit":"m.s-1","parameterCategory":1,"la1":30.2992,"la2":30.254,"lo1":-89.0895,"lo2":-89.0443,"dy":0.0025,"dx":0.0025,"nx":19,"ny":19,"refTime":"2026-05-10T09:00:00:Z","depth":0,"parameterNumber":2,"parameterNumberName":"U-component_of_WINDS"},"data":[0,0,0,-1.3404,-1.3405,-1.3434,-1.3434,-1.3486,-1.3487,0,0,0,0,0,0,0,0,0,0,0,-1.3404,-1.3405,-1.3404,-1.3405,-1.3434,-1.3434,-1.3486,-1.3487,0,0,0,0,0,0,0,0,0,0,0,-1.3404,-1.3405,-1.3406,-1.3405,-1.3434,-1.3434,-1.3486,-1.3459,0,0,0,0,0,0,0,0,0,0,-1.3428,-1.3437,-1.3405,-1.3406,-1.3405,-1.3434,-1.3434,-1.3457,-1.3461,-1.348,0,-1.3499,0,-1.3494,-1.3492,-1.3492,0,0,0,-1.3398,-1.3435,-1.3434,-1.3406,-1.3406,-1.3434,-1.3419,-1.3459,-1.3463,-1.3484,-1.35,-1.3501,-1.3495,-1.3492,-1.3492,-1.3625,-1.3626,0,0,-1.3397,-1.3415,-1.3432,-1.3437,-1.3433,-1.3418,-1.342,-1.3461,-1.3479,-1.35,-1.3502,-1.3496,-1.3492,-1.3493,-1.3624,-1.3625,0,0,0,-1.3396,-1.3414,-1.3412,-1.3435,-1.3439,-1.3419,-1.3421,-1.3477,-1.3475,-1.3503,-1.3496,-1.3493,-1.3494,-1.3623,-1.3625,-1.3689,0,0,0,-1.3395,-1.3414,-1.3412,-1.3423,-1.3439,-1.3459,-1.3437,-1.3472,-1.3476,-1.3496,-1.3493,-1.3494,-1.3622,-1.3624,-1.3685,-1.3716,0,0,0,-1.3399,-1.3414,-1.3421,-1.3424,-1.3437,-1.3458,-1.3458,-1.3473,-1.3473,-1.3492,-1.3494,-1.3622,-1.3624,-1.3681,-1.371,-1.3756,0,0,0,-1.3409,-1.3478,-1.3423,-1.3497,-1.3437,-1.3497,-1.3457,-1.3501,-1.3525,-1.3493,-1.3622,-1.3625,-1.368,-1.3706,-1.3753,-1.3799,-1.382,0,0,-1.3506,-1.349,-1.3532,-1.3484,-1.3558,-1.3491,-1.3575,-1.3579,-1.3565,-1.3606,-1.3609,-1.3686,-1.371,-1.3756,-1.393,-1.3947,0,0,0,-1.3569,-1.3599,-1.3615,-1.3639,-1.3644,-1.3651,-1.3641,-1.3643,-1.3677,-1.359,-1.3715,-1.3728,-1.3754,-1.3776,-1.379,-1.3811,-1.3635,-1.3635,-1.3635,-1.3731,-1.3709,-1.3777,-1.3759,-1.3782,-1.3771,-1.3788,-1.3788,-1.3759,-1.3789,-1.3801,-1.391,-1.3935,-1.3946,-1.3968,-1.3823,-1.3824,-1.3824,-1.3824,-1.3871,-1.3911,-1.387,-1.3922,-1.3898,-1.3941,-1.3933,-1.3911,-1.3948,-1.3898,-1.392,-1.3869,-1.3965,-1.3983,-1.3829,-1.3828,-1.3827,-1.3827,-1.3826,-1.3975,-1.399,-1.3991,-1.4023,-1.405,-1.4029,-1.4066,-1.4043,-1.4021,-1.4043,-1.4053,-1.4052,-1.4048,-1.4049,-1.405,-1.405,-1.4051,-1.4051,-1.4051,-1.4083,-1.4082,-1.4116,-1.4128,-1.414,-1.4153,-1.4143,-1.4154,-1.4161,-1.4141,-1.4141,-1.4109,-1.3978,-1.3946,-1.4057,-1.4056,-1.4055,-1.4055,-1.4054,-1.4233,-1.4195,-1.4249,-1.4261,-1.4273,-1.4301,-1.4271,-1.4296,-1.4302,-1.4322,-1.4285,-1.4192,-1.4174,-1.4163,-1.4136,-1.4289,-1.4289,-1.4289,-1.4289,-1.4321,-1.431,-1.4359,-1.438,-1.4398,-1.4376,-1.4438,-1.4431,-1.4417,-1.442,-1.4394,-1.4357,-1.4346,-1.4335,-1.4319,-1.4294,-1.4484,-1.4484,-1.4484,-1.4412,-1.4402,-1.4458,-1.4445,-1.4452,-1.446,-1.4516,-1.4543,-1.452,-1.4492,-1.4421,-1.4413,-1.4352,-1.4333,-1.4304,-1.4281,-1.4234,0,0]},{"header":{"parameterUnit":"m.s-1","parameterCategory":1,"la1":30.2992,"la2":30.254,"lo1":-89.0895,"lo2":-89.0443,"dy":0.0025,"dx":0.0025,"nx":19,"ny":19,"refTime":"2026-05-10T09:00:00:Z","depth":0,"parameterNumber":3,"parameterNumberName":"V-component_of_WINDS"},"data":[0,0,0,-0.4526,-0.4525,-0.4489,-0.4489,-0.4448,-0.4448,0,0,0,0,0,0,0,0,0,0,0,-0.454,-0.454,-0.4526,-0.4525,-0.4489,-0.4489,-0.4448,-0.4448,0,0,0,0,0,0,0,0,0,0,0,-0.454,-0.454,-0.454,-0.4525,-0.4489,-0.4489,-0.4448,-0.4473,0,0,0,0,0,0,0,0,0,0,-0.4507,-0.4524,-0.454,-0.454,-0.4525,-0.4489,-0.4489,-0.4475,-0.4472,-0.4467,0,-0.4464,0,-0.4455,-0.4446,-0.4446,0,0,0,-0.4522,-0.4527,-0.4514,-0.454,-0.4524,-0.4489,-0.4504,-0.4473,-0.447,-0.4463,-0.4463,-0.4462,-0.4455,-0.4445,-0.4445,-0.4427,-0.4427,0,0,-0.4524,-0.4536,-0.4516,-0.4512,-0.4518,-0.4506,-0.4503,-0.4471,-0.4472,-0.4463,-0.4461,-0.4454,-0.4445,-0.4445,-0.4427,-0.4427,0,0,0,-0.4532,-0.4537,-0.4525,-0.4514,-0.4507,-0.4505,-0.4502,-0.4473,-0.4468,-0.446,-0.4454,-0.4445,-0.4445,-0.4427,-0.4427,-0.4441,0,0,0,-0.4533,-0.4542,-0.4526,-0.4532,-0.4508,-0.449,-0.4505,-0.447,-0.4466,-0.4454,-0.4445,-0.4444,-0.4427,-0.4427,-0.4441,-0.4446,0,0,0,-0.4541,-0.4542,-0.4539,-0.4533,-0.4518,-0.449,-0.4483,-0.4469,-0.4462,-0.4445,-0.4444,-0.4427,-0.4427,-0.444,-0.4445,-0.4444,0,0,0,-0.4553,-0.4552,-0.4539,-0.4534,-0.4519,-0.4499,-0.4483,-0.4468,-0.4455,-0.4445,-0.4427,-0.4427,-0.444,-0.4445,-0.4444,-0.4446,-0.4448,0,0,-0.4558,-0.4553,-0.4549,-0.4537,-0.4522,-0.4504,-0.4491,-0.4468,-0.4456,-0.4437,-0.4437,-0.4441,-0.4445,-0.4444,-0.4455,-0.4456,0,0,0,-0.4554,-0.4552,-0.4545,-0.4534,-0.4516,-0.4502,-0.4479,-0.4471,-0.4455,-0.4449,-0.444,-0.4442,-0.4441,-0.4442,-0.4443,-0.4441,-0.4428,-0.4428,-0.4428,-0.4577,-0.4561,-0.4554,-0.4534,-0.4523,-0.4499,-0.4489,-0.4473,-0.4461,-0.4459,-0.4453,-0.4461,-0.4462,-0.4463,-0.4462,-0.4453,-0.4453,-0.4453,-0.4453,-0.4581,-0.4575,-0.4558,-0.4545,-0.4528,-0.4517,-0.4494,-0.4486,-0.4472,-0.4464,-0.4463,-0.4456,-0.4466,-0.4463,-0.4454,-0.4454,-0.4454,-0.4454,-0.4453,-0.4594,-0.4589,-0.4578,-0.456,-0.4547,-0.4526,-0.4514,-0.4499,-0.4485,-0.4483,-0.4475,-0.4475,-0.4472,-0.448,-0.448,-0.448,-0.448,-0.448,-0.448,-0.4612,-0.46,-0.4592,-0.4573,-0.4563,-0.4548,-0.4524,-0.4514,-0.4499,-0.4489,-0.4489,-0.4476,-0.447,-0.4468,-0.4481,-0.4481,-0.4481,-0.4481,-0.4481,-0.4622,-0.4617,-0.4605,-0.4595,-0.4571,-0.4559,-0.454,-0.452,-0.451,-0.4504,-0.4491,-0.4489,-0.4483,-0.4481,-0.448,-0.4495,-0.4495,-0.4495,-0.4495,-0.4633,-0.4628,-0.4612,-0.4597,-0.4581,-0.4562,-0.4548,-0.4529,-0.4509,-0.4501,-0.4497,-0.4494,-0.4493,-0.4487,-0.4486,-0.4484,-0.45,-0.45,-0.45,-0.4638,-0.4631,-0.4622,-0.4603,-0.4583,-0.4566,-0.4551,-0.4535,-0.4511,-0.45,-0.4495,-0.4494,-0.4489,-0.4489,-0.4478,-0.4476,-0.4473,0,0]}]]